Regional Weather Roundup
Issued by NWS

Home | Current Version | Previous Version | Graphics & Text | Print | Product List | Glossary On
Versions: 1 2 3 4 5 6 7 8 9 10 11 12 13 14 15 16 17 18 19 20 21 22 23 24 25 26 27 28 29 30 31 32 33 34 35 36 37 38 39 40 41 42 43 44 45 46 47 48 49 50
947
ASUS45 KBOU 250807
RWRCO

WEATHER ROUNDUP FOR COLORADO
NATIONAL WEATHER SERVICE DENVER/BOULDER CO
200 AM MDT SUN JUN 25 2017

NOTE: "FAIR" INDICATES FEW OR NO CLOUDS BELOW 12000 FEET WITH NO
SIGNIFICANT WEATHER AND/OR OBSTRUCTIONS TO VISIBILITY.

COZ001>005-013-030-031-250900-
...NORTHWEST COLORADO...

CITY           SKY/WX    TMP DP  RH WIND       PRES   REMARKS
CRAIG          FAIR      45  35  68 NW3       30.30F
HAYDEN         FAIR      52  28  40 E12       30.32F
MEEKER         FAIR      50  32  50 E3        30.31S
RABBIT EARS PA FAIR      46  28  49 SE6       30.57F
STEAMBOAT SPGS FAIR      49  34  54 CALM      30.35F
WALDEN         FAIR      41  32  70 SE6       30.45F
$$

COZ006>008-011-250900-
...WEST CENTRAL VALLEYS...

CITY           SKY/WX    TMP DP  RH WIND       PRES   REMARKS
GRAND JUNCTION FAIR      71  28  20 SE7       30.14S
MONTROSE       FAIR      60  31  33 SE12      30.25R
EAGLE          FAIR      52  28  39 SE3       30.38R
RIFLE          FAIR      57  28  33 SE6       30.25R
DELTA          FAIR      66  29  24 NE7       30.20S
NUCLA          FAIR      63  27  25 E13       30.26S
$$

COZ017>023-064>068-250900-
...SOUTHWEST COLORADO...

CITY           SKY/WX    TMP DP  RH WIND       PRES   REMARKS
DURANGO        FAIR      50  23  34 NE10      30.27R
CORTEZ         FAIR      51  25  36 E6        30.21S
PAGOSA SPRINGS FAIR      55  19  23 N3        30.38R
TELLURIDE      FAIR      54  24  31 SE7       30.49S
WOLF CREEK PAS FAIR      43  36  75 N8        30.72S
$$

COZ009-010-012-014-032>034-037-058>063-250900-
...CENTRAL COLORADO...

CITY           SKY/WX    TMP DP  RH WIND       PRES   REMARKS
ASPEN          FAIR      47  29  49 SW9       30.40S
BUENA VISTA    CLOUDY    57  44  60 CALM      30.48S
COPPER MTN     FAIR      45  32  61 S13       30.68S
BERTHOUD PASS  HAZE      32  21  64 SW7       30.69F VSB 1/4 WCI  26
COTTONWOOD PAS MOCLDY    52  45  76 E5        30.58S
GUNNISON       FAIR      52  33  48 N13       30.41R
KREMMLING      NOT AVBL
LEADVILLE      FAIR      42  37  82 E3        30.55F
MONARCH PASS   FOG       41  39  93 NE18      30.77S VSB<1/4
SALIDA         CLOUDY    61  46  58 CALM      30.53S
SUNLIGHT       FAIR      45  19  36 NE7       30.61S
WILKERSON PASS FOG       41  39  93 CALM      30.68S VSB 1/2
$$

COZ069>075-250900-
...SAN LUIS VALLEY/SANGRE DE CRISTO MOUNTAINS...

CITY           SKY/WX    TMP DP  RH WIND       PRES   REMARKS
ALAMOSA        FAIR      54  45  71 E7        30.39R
DEL NORTE      FAIR      52  40  65 CALM      30.44S
LA VETA PASS   CLOUDY    45  43  93 N8        30.69F
SAGUACHE       FAIR      54  41  62 E5        30.43S
$$

COZ035-036-038>040-250900-
...NORTHERN COLORADO FRONT RANGE...

CITY           SKY/WX    TMP DP  RH WIND       PRES   REMARKS
DENVER INTL AP FAIR      53  46  77 E8        30.34F
DMNS CITY PARK   N/A     57  48  72 NE5G13    30.34F
AURORA         PTCLDY    52  47  85 CALM      30.36S
FRONT RANGE AP FAIR      54  46  76 E8        30.36F
ERIE MUNI ARPT FAIR      59  48  67 E5        30.34F
BOULDER MUN AP FAIR      61  48  63 CALM      30.35F
CENTENNIAL     MOCLDY    54  48  80 S5        30.37S
BROOMFIELD     FAIR      57  46  67 CALM      30.37F
FORT COLLINS   MOCLDY    60  49  66 SE6       30.35S
LONGMONT       FAIR      64  49  59 S5        30.36F
$$

COZ041-046-047-076>085-087-088-250900-
...PIKES PEAK/PALMER DIVIDE AND SOUTHERN FOOTHILLS...

CITY           SKY/WX    TMP DP  RH WIND       PRES   REMARKS
COLO. SPRINGS  MOCLDY    60  49  66 SE6       30.40F
A. F. ACADEMY  FAIR      56  46  67 SE6       30.41S
SCHRIEVER AFB  MOCLDY    57  49  75 S7        30.40F
CHEYENNE MTN   FAIR      57  46  66 S6        30.38S
ELLICOTT       MOCLDY   N/A N/A N/A SE10      30.38F
FALCON           N/A     55  46  73 S5        30.44S
FORT CARSON    FAIR      58  47  66 NE3       30.37F
LIMON          MOCLDY    55  48  77 E7        30.37S
MONUMENT HILL  FAIR      50  45  81 SW5       30.45S
CANON CITY     CLOUDY    66  52  59 CALM      30.34F
WALSENBURG     PTSUNNY   54  48  82 S5        30.37S
TRINIDAD       FAIR      61  50  67 NW7       30.34F
$$

COZ042>045-048>051-090-091-250900-
...NORTHEAST COLORADO...

CITY           SKY/WX    TMP DP  RH WIND       PRES   REMARKS
GREELEY ARPT   MOCLDY    60  50  69 SE7       30.35R
AKRON          FAIR      56  51  84 S13       30.33F
BURLINGTON     CLOUDY    56  52  86 E13       30.36R
WRAY           FAIR      59  46  63 SE7       30.34R
YUMA           CLOUDY    54  50  87 S5        30.34R
STERLING       FAIR      57  48  72 CALM      30.31F
HOLYOKE        NOT AVBL
FORT MORGAN    MOCLDY    55  50  82 E5        30.33S
$$

COZ086-089-092>099-250900-
...SOUTHEAST COLORADO...

CITY           SKY/WX    TMP DP  RH WIND       PRES   REMARKS
PUEBLO         MOCLDY    64  52  64 NE5       30.30S
LA JUNTA       MOCLDY    61  54  77 E6        30.28F
LAMAR          FAIR      62  54  74 S3        30.27S
SPRINGFIELD      N/A     64  56  75 S9        30.32S
$$




USA.gov is the U.S. government's official web portal to all federal, state and local government web resources and services.